Francistown, Botswana

6:07 PM CAT on August 16, 2017 (GMT +0200)
Francistown

Weather History for FBFT - May, 2013

Change the Weather History Date:

Wednesday, May 15, 2013

  Actual Average Record
Temperature  
Mean Temperature 64 °F -  
Max Temperature 80 °F 75 °F 93 °F (2007)
Min Temperature 47 °F 44 °F 39 °F (2017)
Degree Days  
Heating Degree Days 2    
Growing Degree Days 14 (Base 50)    
Moisture  
Dew Point 44 °F    
Average Humidity 49    
Maximum Humidity 77    
Minimum Humidity 17    
Precipitation  
Precipitation 0.00 in - - ()
Sea Level Pressure  
Sea Level Pressure 30.14 in    
Wind  
Wind Speed 4 mph ()    
Max Wind Speed 7 mph    
Max Gust Speed -    
Visibility 6.0 miles    
Events      
Averages and records for this station are not official NWS values.
T = Trace of Precipitation, MM = Missing Value Source: Averaged Metar Reports

Daily Weather History Graph

Daily Weather History Graph

Search for Another Location

Airport or City:

Trip Planner

Search our weather history database for the weather conditions in past years. The results will help you decide how hot, cold, wet, or windy it might be!

Date:

Astronomy

May. 15, 2013 Rise Set
Actual Time 6:33 AM CAT 5:39 PM CAT
Civil Twilight 6:09 AM CAT 6:02 PM CAT
Nautical Twilight 5:42 AM CAT 6:29 PM CAT
Astronomical Twilight 5:16 AM CAT 6:56 PM CAT
Moon 10:40 AM CAT (5/15) 10:09 PM CAT (5/15)
Length of Visible Light 11h 53m
Length of Day
11h 06m
Waxing Crescent, 24% of the Moon is Illuminated
May 15
Waxing Crescent
May 18
First Quarter
May 25
Full
May 31
Last Quarter
Jun 8
New

Hourly Weather History & Observations

Time (CAT) Temp. Dew Point Humidity Pressure Visibility Wind Dir Wind Speed Gust Speed Precip Events Conditions
12:00 AM 55.4 °F 44.6 °F 67% 30.21 in - ESE 5.8 mph - N/A   Clear
1:00 AM 53.6 °F 46.4 °F 77% 30.21 in - Variable 2.3 mph - N/A   Clear
2:00 AM 55 °F 43 °F 55%  in 6 mi East 4.6 mph - -  
3:00 AM 55.4 °F 42.8 °F 63% 30.18 in - Variable 2.3 mph - N/A   Clear
4:00 AM 50.0 °F 41.0 °F 71% 30.18 in - SSE 3.5 mph - N/A   Clear
6:00 AM 48.2 °F 41.0 °F 76% 30.18 in - WSW 3.5 mph - N/A   Clear
7:00 AM 48.2 °F 41.0 °F 76% 30.18 in - SE 3.5 mph - N/A   Clear
8:00 AM 55 °F 45 °F 59%  in 6 mi ENE 1.2 mph - -   Partly Cloudy
8:00 AM 55.4 °F 44.6 °F 67% 30.21 in - Variable 1.2 mph - N/A   Clear
9:00 AM 62.6 °F 46.4 °F 55% 30.21 in - Variable 2.3 mph - N/A   Clear
10:00 AM 68.0 °F 46.4 °F 46% 30.21 in - North 5.8 mph - N/A   Clear
11:00 AM 73.4 °F 46.4 °F 38% 30.18 in - South 3.5 mph - N/A   Clear
12:00 PM 75.2 °F 44.6 °F 34% 30.18 in - SE 4.6 mph - N/A   Clear
1:00 PM 78.8 °F 42.8 °F 28% 30.12 in - SSW 4.6 mph - N/A   Clear
2:00 PM 80 °F 44 °F 17%  in 6 mi West 3.5 mph - -  
2:00 PM 80.6 °F 42.8 °F 26% 30.09 in - West 4.6 mph - N/A   Clear
3:00 PM 80.6 °F 44.6 °F 28% 30.06 in - East 3.5 mph - N/A   Clear
4:00 PM 78.8 °F 42.8 °F 28% 30.06 in - South 4.6 mph - N/A   Clear
5:00 PM 78.8 °F 42.8 °F 28% 30.06 in - SE 4.6 mph - N/A   Clear
6:00 PM 73.4 °F 44.6 °F 36% 30.06 in - SE 5.8 mph - N/A   Clear
7:00 PM 68.0 °F 46.4 °F 46% 30.09 in - SE 5.8 mph - N/A   Clear
8:00 PM 64 °F 44 °F 37%  in 6 mi SSE 6.9 mph - -  
8:00 PM 64.4 °F 44.6 °F 49% 30.09 in - SSE 6.9 mph - N/A   Clear
9:00 PM 62.6 °F 41.0 °F 45% 30.12 in - SE 6.9 mph - N/A   Clear
10:00 PM 60.8 °F 44.6 °F 55% 30.12 in - Variable 2.3 mph - N/A   Clear
11:00 PM 57.2 °F 44.6 °F 63% 30.12 in - Calm Calm - N/A   Clear